Cloud_Cover
100 100 95 100 100 100 100 100 100 100 100 100 100 100 100 99 100 100 100 100 100 100 98 66 100 100 100 99 84 99 100 100 75 5 11 54 96 92 100 76 12 70 60
100 100 100 100 100 100 100 100 100 100 100 100 100 100 100 100 86 100 100 100 100 100 100 100 100 100 100 100 78 74 65 90 29 74 49 21 95 90 69 50 79 84 93
100 100 100 95 100 99 100 100 100 100 100 100 100 100 98 82 100 100 100 99 63 100 100 100 100 100 100 100 100 99 100 82 71 68 77 5 49 100 100 93 100 100 100
90 16 55 78 49 99 100 94 100 100 100 100 100 100 100 100 100 100 92 98 100 93 100 100 100 100 100 100 100 100 100 100 89 5 65 90 51 5 75 100 100 92 100
0 0 0 0 1 3 27 100 100 100 100 100 100 100 100 100 100 100 100 100 100 100 100 100 100 100 100 100 100 100 100 100 100 90 100 80 75 100 92 98 62 65 100
0 0 0 0 0 0 0 0 0 86 100 100 100 100 100 100 100 100 100 100 100 100 100 100 100 100 100 100 100 100 100 100 100 98 100 83 70 100 100 100 96 100 95
0 0 0 0 0 0 0 0 0 0 0 0 0 5 62 80 100 100 100 100 100 100 100 100 100 100 100 100 100 100 100 100 100 100 96 100 100 100 100 100 100 100 100
0 0 0 0 0 0 0 0 0 0 0 0 0 0 0 0 0 32 100 100 100 100 100 100 100 100 100 100 100 100 100 100 100 100 100 100 100 100 100 100 100 100 100
0 0 0 0 0 0 0 0 0 0 0 0 0 0 0 0 0 0 0 5 23 89 100 100 94 94 100 100 100 100 100 100 100 100 100 100 100 100 100 100 100 100 100
0 0 0 0 0 5 5 5 5 5 5 3 0 0 0 0 0 0 0 2 5 18 62 100 100 100 100 100 100 100 99 100 100 100 100 100 100 100 100 100 100 100 100
0 2 5 5 6 5 5 74 97 96 81 18 6 5 3 0 0 0 0 5 5 2 43 75 100 100 100 100 100 100 100 100 100 100 100 100 100 100 100 100 100 100 100
3 5 5 5 5 52 92 82 100 100 100 100 99 74 5 5 1 0 5 5 5 5 5 100 100 100 100 100 100 93 100 100 99 100 100 100 100 100 100 100 100 100 100
5 5 10 46 79 99 100 100 100 100 100 100 100 100 64 12 5 5 5 26 34 78 38 36 92 100 100 100 100 100 100 100 100 100 100 100 100 100 100 100 100 100 100
79 98 100 100 100 100 100 100 100 100 100 100 100 100 100 100 100 100 100 99 52 36 71 99 100 100 100 100 100 100 100 100 100 100 100 100 100 100 100 100 100 100 100
100 100 100 100 100 100 100 100 100 100 100 100 100 100 100 100 100 100 100 100 100 82 100 99 100 100 100 100 100 100 100 100 100 100 100 100 100 100 100 100 100 100 100
100 100 100 100 100 100 100 100 100 100 100 100 100 100 100 100 100 100 100 100 100 100 100 100 100 100 100 99 100 100 100 100 100 100 100 100 100 100 100 100 100 100 100
100 100 100 100 100 100 100 100 100 79 100 100 100 100 100 100 100 100 100 100 100 100 100 99 100 100 100 100 100 100 100 100 100 100 100 100 100 100 100 100 100 100 100
100 100 100 100 100 100 100 100 100 100 100 89 100 100 100 100 100 100 100 100 100 100 100 100 100 100 98 100 100 100 100 100 100 100 100 100 100 100 100 100 100 100 100
100 100 100 100 100 100 100 100 100 100 100 100 100 100 100 100 100 100 100 100 100 93 98 100 100 100 100 100 100 100 100 100 100 100 100 100 100 100 100 100 100 100 100
100 100 100 100 100 100 100 100 100 100 100 100 100 100 100 100 100 100 100 100 47 84 100 99 100 100 100 100 100 100 100 100 100 100 100 100 100 100 100 100 100 100 100
100 100 100 100 100 100 100 100 100 100 100 100 100 100 100 100 92 100 100 100 94 100 100 100 100 100 100 100 100 100 100 100 100 100 100 100 100 100 100 100 100 100 100
100 100 100 100 100 100 100 100 100 100 100 100 100 100 100 100 100 100 100 100 100 100 100 100 100 100 100 100 100 100 100 100 100 100 100 100 100 100 100 100 100 100 100
100 100 100 100 100 100 100 100 100 100 100 100 100 100 100 100 100 100 100 100 100 100 100 100 100 100 100 100 100 100 100 100 100 100 100 100 100 100 100 100 100 100 100
100 100 100 100 100 100 100 100 100 100 100 100 100 100 100 100 100 100 100 100 100 100 100 100 100 100 100 100 100 100 100 100 100 100 100 100 100 100 100 100 100 100 100
97 100 100 100 100 100 100 100 100 100 100 100 100 100 100 100 100 100 100 100 100 100 100 100 100 100 100 100 100 100 100 100 100 100 100 100 100 100 100 100 100 100 100
5 5 45 99 100 100 100 100 100 100 100 100 100 100 100 100 100 100 100 100 100 100 100 100 100 100 100 100 100 100 100 100 100 100 100 100 100 100 100 100 100 100 100